Hourly Weather Rudki

Today, 15 April, Thursday

Time Temperature Precipitation Wind Pressure Humidity
00:00 +2°C° 0 mm 3 mps 761 mmHg 73%
01:00 +1°C° 0 mm 3 mps 760 mmHg 74%
02:00 +1°C° 0 mm 3 mps 760 mmHg 75%
03:00 +1°C° 0 mm 3 mps 760 mmHg 75%
04:00 0°C° 0 mm 4 mps 760 mmHg 76%
05:00 0°C° 0.1 mm 4 mps 760 mmHg 78%
06:00 0°C° 0.1 mm 5 mps 760 mmHg 80%
07:00 0°C° 0.1 mm 5 mps 760 mmHg 82%
08:00 +1°C° 0.2 mm 6 mps 760 mmHg 80%
09:00 +1°C° 0.2 mm 6 mps 760 mmHg 78%
10:00 0°C° 0.2 mm 7 mps 759 mmHg 77%
11:00 0°C° 0.7 mm 7 mps 759 mmHg 82%
12:00 0°C° 0.7 mm 7 mps 759 mmHg 88%
13:00 +1°C° 0.7 mm 6 mps 759 mmHg 93%
14:00 +1°C° 0.7 mm 6 mps 759 mmHg 94%
15:00 +1°C° 0.7 mm 6 mps 758 mmHg 95%
16:00 +2°C° 0.7 mm 5 mps 758 mmHg 96%
17:00 +1°C° 0.7 mm 5 mps 758 mmHg 96%
18:00 +1°C° 0.7 mm 5 mps 758 mmHg 97%
19:00 +1°C° 0.7 mm 5 mps 758 mmHg 97%
20:00 +1°C° 0.6 mm 5 mps 758 mmHg 95%
21:00 +1°C° 0.6 mm 5 mps 758 mmHg 94%
22:00 +3°C° 0.6 mm 4 mps 758 mmHg 92%
23:00 +3°C° 0.2 mm 4 mps 758 mmHg 92%

Tomorrow, 16 April, Friday

Time Temperature Precipitation Wind Pressure Humidity
00:00 +3°C° 0.2 mm 4 mps 758 mmHg 91%
01:00 +3°C° 0.2 mm 4 mps 758 mmHg 90%
02:00 +1°C° 0.1 mm 4 mps 758 mmHg 90%
03:00 +1°C° 0.1 mm 4 mps 758 mmHg 90%
04:00 +1°C° 0.1 mm 4 mps 758 mmHg 89%
05:00 +1°C° 0.1 mm 4 mps 758 mmHg 88%
06:00 +1°C° 0.1 mm 4 mps 758 mmHg 87%
07:00 +1°C° 0.1 mm 4 mps 758 mmHg 86%
08:00 +4°C° 0 mm 4 mps 758 mmHg 78%
09:00 +5°C° 0 mm 4 mps 758 mmHg 71%
10:00 +7°C° 0 mm 5 mps 758 mmHg 63%
11:00 +7°C° 0 mm 5 mps 758 mmHg 62%
12:00 +8°C° 0 mm 5 mps 758 mmHg 60%
13:00 +8°C° 0 mm 5 mps 758 mmHg 58%
14:00 +8°C° 0 mm 5 mps 758 mmHg 62%
15:00 +7°C° 0 mm 5 mps 757 mmHg 67%
16:00 +7°C° 0 mm 4 mps 757 mmHg 71%
17:00 +6°C° 0 mm 4 mps 758 mmHg 77%
18:00 +4°C° 0 mm 4 mps 758 mmHg 83%
19:00 +3°C° 0 mm 4 mps 758 mmHg 89%
20:00 +3°C° 0.1 mm 3 mps 758 mmHg 90%
21:00 +3°C° 0.1 mm 3 mps 758 mmHg 91%
22:00 +4°C° 0.1 mm 2 mps 758 mmHg 93%
23:00 +4°C° 0.1 mm 2 mps 758 mmHg 93%

Day after tomorrow, 17 April, Saturday

Time Temperature Precipitation Wind Pressure Humidity
00:00 +4°C° 0.1 mm 2 mps 758 mmHg 93%
01:00 +4°C° 0.1 mm 2 mps 757 mmHg 93%
02:00 +4°C° 0 mm 2 mps 758 mmHg 93%
03:00 +4°C° 0 mm 2 mps 758 mmHg 93%
04:00 +4°C° 0 mm 2 mps 758 mmHg 93%
05:00 +4°C° 0 mm 2 mps 758 mmHg 93%
06:00 +5°C° 0 mm 2 mps 758 mmHg 92%
07:00 +5°C° 0 mm 2 mps 758 mmHg 92%
08:00 +6°C° 0.1 mm 2 mps 758 mmHg 91%
09:00 +6°C° 0.1 mm 2 mps 758 mmHg 90%
10:00 +7°C° 0.1 mm 2 mps 758 mmHg 89%
11:00 +7°C° 0.6 mm 2 mps 758 mmHg 90%
12:00 +7°C° 0.6 mm 2 mps 758 mmHg 92%
13:00 +7°C° 0.6 mm 2 mps 757 mmHg 94%
14:00 +7°C° 0.7 mm 2 mps 757 mmHg 95%
15:00 +8°C° 0.7 mm 1 mps 757 mmHg 96%
16:00 +8°C° 0.7 mm 1 mps 757 mmHg 97%
17:00 +8°C° 0.1 mm 1 mps 757 mmHg 96%
18:00 +8°C° 0.1 mm 1 mps 757 mmHg 96%
19:00 +7°C° 0.1 mm 0 mps 758 mmHg 96%
20:00 +7°C° 0 mm 0 mps 758 mmHg 95%
21:00 +7°C° 0 mm 1 mps 758 mmHg 95%
22:00 +7°C° 0 mm 1 mps 758 mmHg 94%
23:00 +7°C° 0 mm 1 mps 758 mmHg 95%

18 April, Sunday

Time Temperature Precipitation Wind Pressure Humidity
00:00 +7°C° 0 mm 1 mps 758 mmHg 95%
01:00 +6°C° 0 mm 2 mps 758 mmHg 96%
02:00 +6°C° 0.2 mm 2 mps 757 mmHg 96%
03:00 +6°C° 0.2 mm 2 mps 757 mmHg 97%
04:00 +6°C° 0.2 mm 2 mps 757 mmHg 97%
05:00 +7°C° 0.2 mm 2 mps 757 mmHg 95%
06:00 +7°C° 0.2 mm 3 mps 758 mmHg 92%
07:00 +7°C° 0.2 mm 3 mps 758 mmHg 90%
08:00 +8°C° 0.1 mm 3 mps 758 mmHg 84%
09:00 +10°C° 0.1 mm 3 mps 758 mmHg 79%
10:00 +11°C° 0.1 mm 3 mps 758 mmHg 73%
11:00 +11°C° 0.3 mm 3 mps 758 mmHg 70%
12:00 +12°C° 0.3 mm 3 mps 757 mmHg 66%
13:00 +13°C° 0.3 mm 4 mps 757 mmHg 63%
14:00 +12°C° 0.4 mm 4 mps 757 mmHg 67%
15:00 +12°C° 0.4 mm 4 mps 757 mmHg 71%
16:00 +11°C° 0.4 mm 4 mps 757 mmHg 76%
17:00 +10°C° 0.1 mm 3 mps 757 mmHg 80%
18:00 +9°C° 0.1 mm 3 mps 757 mmHg 85%
19:00 +8°C° 0.1 mm 3 mps 758 mmHg 89%
20:00 +8°C° 0 mm 2 mps 758 mmHg 90%
21:00 +7°C° 0 mm 2 mps 758 mmHg 91%
22:00 +7°C° 0 mm 2 mps 758 mmHg 92%
23:00 +7°C° 0 mm 2 mps 758 mmHg 93%

19 April, Monday

Time Temperature Precipitation Wind Pressure Humidity
00:00 +7°C° 0 mm 2 mps 758 mmHg 94%
01:00 +6°C° 0 mm 2 mps 757 mmHg 96%
02:00 +7°C° 0 mm 2 mps 757 mmHg 96%
03:00 +7°C° 0 mm 2 mps 757 mmHg 96%
04:00 +7°C° 0 mm 2 mps 757 mmHg 96%
05:00 +8°C° 0.2 mm 2 mps 757 mmHg 96%
06:00 +8°C° 0.2 mm 2 mps 757 mmHg 95%
07:00 +8°C° 0.2 mm 2 mps 757 mmHg 95%
08:00 +10°C° 0.2 mm 3 mps 757 mmHg 89%
09:00 +11°C° 0.2 mm 3 mps 757 mmHg 84%
10:00 +12°C° 0.2 mm 4 mps 757 mmHg 79%
11:00 +12°C° 0.3 mm 4 mps 757 mmHg 74%
12:00 +13°C° 0.3 mm 4 mps 757 mmHg 69%
13:00 +14°C° 0.3 mm 4 mps 756 mmHg 64%
14:00 +14°C° 0.1 mm 4 mps 756 mmHg 64%
15:00 +14°C° 0.1 mm 4 mps 756 mmHg 65%
16:00 +14°C° 0.1 mm 4 mps 756 mmHg 65%
17:00 +12°C° 0.1 mm 3 mps 756 mmHg 69%
18:00 +11°C° 0.1 mm 3 mps 756 mmHg 74%
19:00 +10°C° 0.1 mm 3 mps 756 mmHg 78%
20:00 +9°C° 0 mm 3 mps 756 mmHg 81%
21:00 +8°C° 0 mm 3 mps 756 mmHg 84%
22:00 +7°C° 0 mm 3 mps 757 mmHg 87%
23:00 +7°C° 0 mm 3 mps 756 mmHg 86%

20 April, Tuesday

Time Temperature Precipitation Wind Pressure Humidity
00:00 +7°C° 0 mm 3 mps 756 mmHg 86%
01:00 +7°C° 0 mm 3 mps 756 mmHg 86%
02:00 +7°C° 0 mm 3 mps 756 mmHg 86%
03:00 +5°C° 0 mm 3 mps 756 mmHg 86%
04:00 +5°C° 0 mm 3 mps 756 mmHg 87%
05:00 +7°C° 0 mm 3 mps 756 mmHg 83%
06:00 +8°C° 0 mm 3 mps 756 mmHg 80%
07:00 +9°C° 0 mm 3 mps 756 mmHg 76%
08:00 +10°C° 0 mm 4 mps 756 mmHg 71%
09:00 +11°C° 0 mm 4 mps 756 mmHg 65%
10:00 +12°C° 0 mm 4 mps 756 mmHg 59%
11:00 +12°C° 0.1 mm 4 mps 756 mmHg 58%
12:00 +12°C° 0.1 mm 4 mps 756 mmHg 56%
13:00 +12°C° 0.1 mm 4 mps 756 mmHg 55%
14:00 +13°C° 0 mm 4 mps 755 mmHg 54%
15:00 +13°C° 0 mm 3 mps 755 mmHg 52%
16:00 +13°C° 0 mm 3 mps 755 mmHg 51%
17:00 +12°C° 0 mm 3 mps 755 mmHg 55%
18:00 +12°C° 0 mm 2 mps 755 mmHg 59%
19:00 +10°C° 0 mm 2 mps 755 mmHg 63%
20:00 +11°C° 0 mm 1 mps 755 mmHg 63%
21:00 +11°C° 0 mm 1 mps 755 mmHg 62%
22:00 +10°C° 0 mm 1 mps 755 mmHg 61%
23:00 +10°C° 0 mm 1 mps 755 mmHg 61%
Show more